Year,Month,Day,Hour,Minute,Value (Times are PST for temperature in C)
2017,06,17,00,00,11.90
2017,06,17,00,01,11.90
2017,06,17,00,02,11.90
2017,06,17,00,03,11.90
2017,06,17,00,04,11.90
2017,06,17,00,05,11.90
2017,06,17,00,06,11.90
2017,06,17,00,07,11.90
2017,06,17,00,08,11.90
2017,06,17,00,09,11.80
2017,06,17,00,10,11.80
2017,06,17,00,11,11.80
2017,06,17,00,12,11.80
2017,06,17,00,13,11.80
2017,06,17,00,14,11.80
2017,06,17,00,15,11.80
2017,06,17,00,16,11.70
2017,06,17,00,17,11.70
2017,06,17,00,18,11.70
2017,06,17,00,19,11.70
2017,06,17,00,20,11.60
2017,06,17,00,21,11.60
2017,06,17,00,22,11.60
2017,06,17,00,23,11.50
2017,06,17,00,24,11.40
2017,06,17,00,25,11.40
2017,06,17,00,26,11.40
2017,06,17,00,27,11.30
2017,06,17,00,28,11.30
2017,06,17,00,29,11.30
2017,06,17,00,30,11.20
2017,06,17,00,31,11.20
2017,06,17,00,32,11.20
2017,06,17,00,33,11.20
2017,06,17,00,34,11.10
2017,06,17,00,35,11.10
2017,06,17,00,36,11.10
2017,06,17,00,37,11.00
2017,06,17,00,38,11.00
2017,06,17,00,39,11.00
2017,06,17,00,40,11.00
2017,06,17,00,41,11.10
2017,06,17,00,42,11.10
2017,06,17,00,43,11.10
2017,06,17,00,44,11.10
2017,06,17,00,45,11.20
2017,06,17,00,46,11.20
2017,06,17,00,47,11.20
2017,06,17,00,48,11.30
2017,06,17,00,49,11.30
2017,06,17,00,50,11.30
2017,06,17,00,51,11.30
2017,06,17,00,52,11.30
2017,06,17,00,53,11.30
2017,06,17,00,54,11.30
2017,06,17,00,55,11.30
2017,06,17,00,56,11.30
2017,06,17,00,57,11.30
2017,06,17,00,58,11.20
2017,06,17,00,59,11.20
2017,06,17,01,00,11.20
2017,06,17,01,01,11.30
2017,06,17,01,02,11.30
2017,06,17,01,03,11.30
2017,06,17,01,04,11.30
2017,06,17,01,05,11.30
2017,06,17,01,06,11.30
2017,06,17,01,07,11.30
2017,06,17,01,08,11.30
2017,06,17,01,09,11.30
2017,06,17,01,10,11.30
2017,06,17,01,11,11.20
2017,06,17,01,12,11.20
2017,06,17,01,13,11.20
2017,06,17,01,14,11.20
2017,06,17,01,15,11.10
2017,06,17,01,16,11.10
2017,06,17,01,17,11.10
2017,06,17,01,18,11.10
2017,06,17,01,19,11.00
2017,06,17,01,20,11.00
2017,06,17,01,21,11.00
2017,06,17,01,22,11.00
2017,06,17,01,23,11.00
2017,06,17,01,24,11.00
2017,06,17,01,25,11.00
2017,06,17,01,26,11.00
2017,06,17,01,27,11.00
2017,06,17,01,28,11.00
2017,06,17,01,29,11.00
2017,06,17,01,30,11.00
2017,06,17,01,31,11.00
2017,06,17,01,32,11.00
2017,06,17,01,33,11.10
2017,06,17,01,34,11.10
2017,06,17,01,35,11.10
2017,06,17,01,36,11.20
2017,06,17,01,37,11.20
2017,06,17,01,38,11.20
2017,06,17,01,39,11.30
2017,06,17,01,40,11.40
2017,06,17,01,41,11.40
2017,06,17,01,42,11.50
2017,06,17,01,43,11.50
2017,06,17,01,44,11.60
2017,06,17,01,45,11.60
2017,06,17,01,46,11.60
2017,06,17,01,47,11.60
2017,06,17,01,48,11.70
2017,06,17,01,49,11.70
2017,06,17,01,50,11.70
2017,06,17,01,51,11.80
2017,06,17,01,52,11.90
2017,06,17,01,53,12.00
2017,06,17,01,54,12.10
2017,06,17,01,55,12.10
2017,06,17,01,56,12.20
2017,06,17,01,57,12.20
2017,06,17,01,58,12.30
2017,06,17,01,59,12.30
2017,06,17,02,00,12.30
2017,06,17,02,01,12.30
2017,06,17,02,02,12.30
2017,06,17,02,03,12.40
2017,06,17,02,04,12.40
2017,06,17,02,05,12.40
2017,06,17,02,06,12.40
2017,06,17,02,07,12.40
2017,06,17,02,08,12.40
2017,06,17,02,09,12.40
2017,06,17,02,10,12.40
2017,06,17,02,11,12.40
2017,06,17,02,12,12.40
2017,06,17,02,13,12.40
2017,06,17,02,14,12.50
2017,06,17,02,15,12.50
2017,06,17,02,16,12.50
2017,06,17,02,17,12.50
2017,06,17,02,18,12.50
2017,06,17,02,19,12.50
2017,06,17,02,20,12.50
2017,06,17,02,21,12.50
2017,06,17,02,22,12.60
2017,06,17,02,23,12.60
2017,06,17,02,24,12.60
2017,06,17,02,25,12.60
2017,06,17,02,26,12.60
2017,06,17,02,27,12.60
2017,06,17,02,28,12.60
2017,06,17,02,29,12.60
2017,06,17,02,30,12.60
2017,06,17,02,31,12.60
2017,06,17,02,32,12.60
2017,06,17,02,33,12.60
2017,06,17,02,34,12.60
2017,06,17,02,35,12.60
2017,06,17,02,36,12.60
2017,06,17,02,37,12.60
2017,06,17,02,38,12.70
2017,06,17,02,39,12.70
2017,06,17,02,40,12.70
2017,06,17,02,41,12.70
2017,06,17,02,42,12.70
2017,06,17,02,43,12.80
2017,06,17,02,44,12.80
2017,06,17,02,45,12.80
2017,06,17,02,46,12.80
2017,06,17,02,47,12.80
2017,06,17,02,48,12.80
2017,06,17,02,49,12.80
2017,06,17,02,50,12.80
2017,06,17,02,51,12.80
2017,06,17,02,52,12.80
2017,06,17,02,53,12.80
2017,06,17,02,54,12.80
2017,06,17,02,55,12.80
2017,06,17,02,56,12.80
2017,06,17,02,57,12.80
2017,06,17,02,58,12.90
2017,06,17,02,59,12.90
2017,06,17,03,00,12.90
2017,06,17,03,01,12.90
2017,06,17,03,02,12.90
2017,06,17,03,03,12.90
2017,06,17,03,04,12.90
2017,06,17,03,05,12.90
2017,06,17,03,06,12.90
2017,06,17,03,07,12.90
2017,06,17,03,08,12.90
2017,06,17,03,09,12.90
2017,06,17,03,10,12.90
2017,06,17,03,11,13.00
2017,06,17,03,12,13.00
2017,06,17,03,13,13.00
2017,06,17,03,14,13.00
2017,06,17,03,15,13.00
2017,06,17,03,16,13.00
2017,06,17,03,17,13.00
2017,06,17,03,18,13.00
2017,06,17,03,19,13.00
2017,06,17,03,20,13.00
2017,06,17,03,21,13.00
2017,06,17,03,22,13.00
2017,06,17,03,23,13.00
2017,06,17,03,24,13.00
2017,06,17,03,25,13.00
2017,06,17,03,26,12.90
2017,06,17,03,27,12.90
2017,06,17,03,28,12.90
2017,06,17,03,29,12.80
2017,06,17,03,30,12.80
2017,06,17,03,31,12.80
2017,06,17,03,32,12.70
2017,06,17,03,33,12.60
2017,06,17,03,34,12.60
2017,06,17,03,35,12.50
2017,06,17,03,36,12.40
2017,06,17,03,37,12.40
2017,06,17,03,38,12.30
2017,06,17,03,39,12.30
2017,06,17,03,40,12.30
2017,06,17,03,41,12.30
2017,06,17,03,42,12.20
2017,06,17,03,43,12.20
2017,06,17,03,44,12.20
2017,06,17,03,45,12.20
2017,06,17,03,46,12.20
2017,06,17,03,47,12.10
2017,06,17,03,48,12.10
2017,06,17,03,49,12.10
2017,06,17,03,50,12.10
2017,06,17,03,51,12.10
2017,06,17,03,52,12.00
2017,06,17,03,53,12.00
2017,06,17,03,54,11.90
2017,06,17,03,55,11.90
2017,06,17,03,56,11.90
2017,06,17,03,57,11.80
2017,06,17,03,58,11.80
2017,06,17,03,59,11.80
2017,06,17,04,00,11.80
2017,06,17,04,01,11.70
2017,06,17,04,02,11.70
2017,06,17,04,03,11.70
2017,06,17,04,04,11.70
2017,06,17,04,05,11.60
2017,06,17,04,06,11.60
2017,06,17,04,07,11.60
2017,06,17,04,08,11.50
2017,06,17,04,09,11.50
2017,06,17,04,10,11.50
2017,06,17,04,11,11.40
2017,06,17,04,12,11.40
2017,06,17,04,13,11.40
2017,06,17,04,14,11.40
2017,06,17,04,15,11.30
2017,06,17,04,16,11.30
2017,06,17,04,17,11.30
2017,06,17,04,18,11.30
2017,06,17,04,19,11.30
2017,06,17,04,20,11.20
2017,06,17,04,21,11.20
2017,06,17,04,22,11.20
2017,06,17,04,23,11.20
2017,06,17,04,24,11.20
2017,06,17,04,25,11.20
2017,06,17,04,26,11.20
2017,06,17,04,27,11.20
2017,06,17,04,28,11.10
2017,06,17,04,29,11.10
2017,06,17,04,30,11.10
2017,06,17,04,31,11.10
2017,06,17,04,32,11.00
2017,06,17,04,33,11.00
2017,06,17,04,34,11.00
2017,06,17,04,35,10.90
2017,06,17,04,36,10.90
2017,06,17,04,37,10.90
2017,06,17,04,38,10.90
2017,06,17,04,39,10.90
2017,06,17,04,40,10.80
2017,06,17,04,41,10.80
2017,06,17,04,42,10.80
2017,06,17,04,43,10.80
2017,06,17,04,44,10.80
2017,06,17,04,45,10.80
2017,06,17,04,46,10.70
2017,06,17,04,47,10.70
2017,06,17,04,48,10.70
2017,06,17,04,49,10.70
2017,06,17,04,50,10.70
2017,06,17,04,51,10.70
2017,06,17,04,52,10.60
2017,06,17,04,53,10.60
2017,06,17,04,54,10.60
2017,06,17,04,55,10.60
2017,06,17,04,56,10.60
2017,06,17,04,57,10.60
2017,06,17,04,58,10.50
2017,06,17,04,59,10.50
2017,06,17,05,00,10.50
2017,06,17,05,01,10.50
2017,06,17,05,02,10.50
2017,06,17,05,03,10.40
2017,06,17,05,04,10.40
2017,06,17,05,05,10.40
2017,06,17,05,06,10.40
2017,06,17,05,07,10.40
2017,06,17,05,08,10.40
2017,06,17,05,09,10.40
2017,06,17,05,10,10.30
2017,06,17,05,11,10.30
2017,06,17,05,12,10.30
2017,06,17,05,13,10.30
2017,06,17,05,14,10.30
2017,06,17,05,15,10.20
2017,06,17,05,16,10.20
2017,06,17,05,17,10.20
2017,06,17,05,18,10.20
2017,06,17,05,19,10.20
2017,06,17,05,20,10.20
2017,06,17,05,21,10.20
2017,06,17,05,22,10.20
2017,06,17,05,23,10.20
2017,06,17,05,24,10.20
2017,06,17,05,25,10.20
2017,06,17,05,26,10.20
2017,06,17,05,27,10.20
2017,06,17,05,28,10.20
2017,06,17,05,29,10.20
2017,06,17,05,30,10.20
2017,06,17,05,31,10.20
2017,06,17,05,32,10.20
2017,06,17,05,33,10.20
2017,06,17,05,34,10.20
2017,06,17,05,35,10.10
2017,06,17,05,36,10.10
2017,06,17,05,37,10.10
2017,06,17,05,38,10.10
2017,06,17,05,39,10.10
2017,06,17,05,40,10.10
2017,06,17,05,41,10.10
2017,06,17,05,42,10.10
2017,06,17,05,43,10.10
2017,06,17,05,44,10.10
2017,06,17,05,45,10.10
2017,06,17,05,46,10.10
2017,06,17,05,47,10.10
2017,06,17,05,48,10.10
2017,06,17,05,49,10.10
2017,06,17,05,50,10.20
2017,06,17,05,51,10.20
2017,06,17,05,52,10.20
2017,06,17,05,53,10.20
2017,06,17,05,54,10.20
2017,06,17,05,55,10.20
2017,06,17,05,56,10.20
2017,06,17,05,57,10.10
2017,06,17,05,58,10.10
2017,06,17,05,59,10.10
2017,06,17,06,00,10.10
2017,06,17,06,01,10.10
2017,06,17,06,02,10.10
2017,06,17,06,03,10.10
2017,06,17,06,04,10.10
2017,06,17,06,05,10.10
2017,06,17,06,06,10.10
2017,06,17,06,07,10.20
2017,06,17,06,08,10.20
2017,06,17,06,09,10.20
2017,06,17,06,10,10.20
2017,06,17,06,11,10.20
2017,06,17,06,12,10.20
2017,06,17,06,13,10.30
2017,06,17,06,14,10.30
2017,06,17,06,15,10.30
2017,06,17,06,16,10.30
2017,06,17,06,17,10.40
2017,06,17,06,18,10.40
2017,06,17,06,19,10.40
2017,06,17,06,20,10.50
2017,06,17,06,21,10.50
2017,06,17,06,22,10.50
2017,06,17,06,23,10.60
2017,06,17,06,24,10.60
2017,06,17,06,25,10.60
2017,06,17,06,26,10.60
2017,06,17,06,27,10.60
2017,06,17,06,28,10.70
2017,06,17,06,29,10.70
2017,06,17,06,30,10.70
2017,06,17,06,31,10.70
2017,06,17,06,32,10.80
2017,06,17,06,33,10.80
2017,06,17,06,34,10.80
2017,06,17,06,35,10.90
2017,06,17,06,36,10.90
2017,06,17,06,37,10.90
2017,06,17,06,38,10.90
2017,06,17,06,39,11.00
2017,06,17,06,40,11.00
2017,06,17,06,41,11.00
2017,06,17,06,42,11.10
2017,06,17,06,43,11.10
2017,06,17,06,44,11.10
2017,06,17,06,45,11.10
2017,06,17,06,46,11.20
2017,06,17,06,47,11.20
2017,06,17,06,48,11.20
2017,06,17,06,49,11.20
2017,06,17,06,50,11.20
2017,06,17,06,51,11.30
2017,06,17,06,52,11.30
2017,06,17,06,53,11.30
2017,06,17,06,54,11.30
2017,06,17,06,55,11.30
2017,06,17,06,56,11.40
2017,06,17,06,57,11.40
2017,06,17,06,58,11.50
2017,06,17,06,59,11.50
2017,06,17,07,00,11.60
2017,06,17,07,01,11.60
2017,06,17,07,02,11.70
2017,06,17,07,03,11.70
2017,06,17,07,04,11.70
2017,06,17,07,05,11.80
2017,06,17,07,06,11.80
2017,06,17,07,07,11.80
2017,06,17,07,08,11.80
2017,06,17,07,09,11.90
2017,06,17,07,10,11.90
2017,06,17,07,11,12.00
2017,06,17,07,12,12.00
2017,06,17,07,13,12.00
2017,06,17,07,14,12.10
2017,06,17,07,15,12.10
2017,06,17,07,16,12.10
2017,06,17,07,17,12.20
2017,06,17,07,18,12.20
2017,06,17,07,19,12.20
2017,06,17,07,20,12.20
2017,06,17,07,21,12.30
2017,06,17,07,22,12.30
2017,06,17,07,23,12.30
2017,06,17,07,24,12.30
2017,06,17,07,25,12.40
2017,06,17,07,26,12.40
2017,06,17,07,27,12.40
2017,06,17,07,28,12.50
2017,06,17,07,29,12.50
2017,06,17,07,30,12.50
2017,06,17,07,31,12.60
2017,06,17,07,32,12.60
2017,06,17,07,33,12.60
2017,06,17,07,34,12.70
2017,06,17,07,35,12.70
2017,06,17,07,36,12.70
2017,06,17,07,37,12.80
2017,06,17,07,38,12.80
2017,06,17,07,39,12.80
2017,06,17,07,40,12.90
2017,06,17,07,41,12.90
2017,06,17,07,42,13.00
2017,06,17,07,43,13.00
2017,06,17,07,44,13.10
2017,06,17,07,45,13.10
2017,06,17,07,46,13.20
2017,06,17,07,47,13.20
2017,06,17,07,48,13.30
2017,06,17,07,49,13.30
2017,06,17,07,50,13.30
2017,06,17,07,51,13.40
2017,06,17,07,52,13.40
2017,06,17,07,53,13.40
2017,06,17,07,54,13.40
2017,06,17,07,55,13.40
2017,06,17,07,56,13.40
2017,06,17,07,57,13.50
2017,06,17,07,58,13.50
2017,06,17,07,59,13.50
2017,06,17,08,00,13.60
2017,06,17,08,01,13.60
2017,06,17,08,02,13.60
2017,06,17,08,03,13.60
2017,06,17,08,04,13.70
2017,06,17,08,05,13.70
2017,06,17,08,06,13.80
2017,06,17,08,07,13.80
2017,06,17,08,08,13.90
2017,06,17,08,09,13.90
2017,06,17,08,10,13.90
2017,06,17,08,11,14.00
2017,06,17,08,12,14.00
2017,06,17,08,13,14.00
2017,06,17,08,14,14.00
2017,06,17,08,15,14.00
2017,06,17,08,16,14.00
2017,06,17,08,17,14.10
2017,06,17,08,18,14.10
2017,06,17,08,19,14.10
2017,06,17,08,20,14.10
2017,06,17,08,21,14.10
2017,06,17,08,22,14.10
2017,06,17,08,23,14.10
2017,06,17,08,24,14.10
2017,06,17,08,25,14.10
2017,06,17,08,26,14.10
2017,06,17,08,27,14.10
2017,06,17,08,28,14.10
2017,06,17,08,29,14.10
2017,06,17,08,30,14.10
2017,06,17,08,31,14.10
2017,06,17,08,32,14.10
2017,06,17,08,33,14.10
2017,06,17,08,34,14.10
2017,06,17,08,35,14.10
2017,06,17,08,36,14.10
2017,06,17,08,37,14.10
2017,06,17,08,38,14.10
2017,06,17,08,39,14.10
2017,06,17,08,40,14.10
2017,06,17,08,41,14.10
2017,06,17,08,42,14.10
2017,06,17,08,43,14.20
2017,06,17,08,44,14.20
2017,06,17,08,45,14.20
2017,06,17,08,46,14.20
2017,06,17,08,47,14.20
2017,06,17,08,48,14.20
2017,06,17,08,49,14.20
2017,06,17,08,50,14.20
2017,06,17,08,51,14.20
2017,06,17,08,52,14.20
2017,06,17,08,53,14.20
2017,06,17,08,54,14.20
2017,06,17,08,55,14.20
2017,06,17,08,56,14.20
2017,06,17,08,57,14.20
2017,06,17,08,58,14.20
2017,06,17,08,59,14.20
2017,06,17,09,00,14.20
2017,06,17,09,01,14.20
2017,06,17,09,02,14.20
2017,06,17,09,03,14.20
2017,06,17,09,04,14.20
2017,06,17,09,05,14.20
2017,06,17,09,06,14.10
2017,06,17,09,07,14.10
2017,06,17,09,08,14.10
2017,06,17,09,09,14.10
2017,06,17,09,10,14.10
2017,06,17,09,11,14.10
2017,06,17,09,12,14.10
2017,06,17,09,13,14.10
2017,06,17,09,14,14.10
2017,06,17,09,15,14.10
2017,06,17,09,16,14.20
2017,06,17,09,17,14.20
2017,06,17,09,18,14.20
2017,06,17,09,19,14.20
2017,06,17,09,20,14.20
2017,06,17,09,21,14.20
2017,06,17,09,22,14.30
2017,06,17,09,23,14.40
2017,06,17,09,24,14.40
2017,06,17,09,25,14.40
2017,06,17,09,26,14.50
2017,06,17,09,27,14.50
2017,06,17,09,28,14.60
2017,06,17,09,29,14.60
2017,06,17,09,30,14.60
2017,06,17,09,31,14.60
2017,06,17,09,32,14.60
2017,06,17,09,33,14.60
2017,06,17,09,34,14.60
2017,06,17,09,35,14.70
2017,06,17,09,36,14.70
2017,06,17,09,37,14.70
2017,06,17,09,38,14.60
2017,06,17,09,39,14.60
2017,06,17,09,40,14.60
2017,06,17,09,41,14.60
2017,06,17,09,42,14.60
2017,06,17,09,43,14.70
2017,06,17,09,44,14.70
2017,06,17,09,45,14.80
2017,06,17,09,46,14.90
2017,06,17,09,47,15.00
2017,06,17,09,48,15.00
2017,06,17,09,49,15.00
2017,06,17,09,50,15.00
2017,06,17,09,51,15.00
2017,06,17,09,52,15.00
2017,06,17,09,53,15.00
2017,06,17,09,54,14.80
2017,06,17,09,55,14.80
2017,06,17,09,56,14.80
2017,06,17,09,57,14.90
2017,06,17,09,58,15.00
2017,06,17,09,59,15.00
2017,06,17,10,00,15.00
2017,06,17,10,01,15.00
2017,06,17,10,02,15.00
2017,06,17,10,03,15.00
2017,06,17,10,04,15.00
2017,06,17,10,05,15.00
2017,06,17,10,06,15.00
2017,06,17,10,07,15.00
2017,06,17,10,08,15.00
2017,06,17,10,09,15.00
2017,06,17,10,10,14.90
2017,06,17,10,11,14.90
2017,06,17,10,12,15.00
2017,06,17,10,13,15.00
2017,06,17,10,14,15.00
2017,06,17,10,15,14.90
2017,06,17,10,16,14.90
2017,06,17,10,17,14.80
2017,06,17,10,18,14.70
2017,06,17,10,19,14.70
2017,06,17,10,20,14.80
2017,06,17,10,21,14.80
2017,06,17,10,22,14.70
2017,06,17,10,23,14.70
2017,06,17,10,24,14.70
2017,06,17,10,25,14.60
2017,06,17,10,26,14.60
2017,06,17,10,27,14.70
2017,06,17,10,28,14.70
2017,06,17,10,29,14.70
2017,06,17,10,30,14.70
2017,06,17,10,31,14.70
2017,06,17,10,32,14.70
2017,06,17,10,33,14.70
2017,06,17,10,34,14.80
2017,06,17,10,35,14.80
2017,06,17,10,36,14.90
2017,06,17,10,37,14.90
2017,06,17,10,38,15.00
2017,06,17,10,39,14.90
2017,06,17,10,40,14.90
2017,06,17,10,41,14.80
2017,06,17,10,42,14.80
2017,06,17,10,43,14.80
2017,06,17,10,44,14.80
2017,06,17,10,45,14.70
2017,06,17,10,46,14.80
2017,06,17,10,47,15.00
2017,06,17,10,48,15.00
2017,06,17,10,49,15.00
2017,06,17,10,50,15.00
2017,06,17,10,51,15.00
2017,06,17,10,52,15.00
2017,06,17,10,53,14.90
2017,06,17,10,54,14.90
2017,06,17,10,55,14.90
2017,06,17,10,56,14.90
2017,06,17,10,57,15.00
2017,06,17,10,58,15.00
2017,06,17,10,59,15.00
2017,06,17,11,00,15.00
2017,06,17,11,01,15.00
2017,06,17,11,02,15.00
2017,06,17,11,03,15.00
2017,06,17,11,04,15.00
2017,06,17,11,05,15.00
2017,06,17,11,06,15.00
2017,06,17,11,07,15.00
2017,06,17,11,08,15.00
2017,06,17,11,09,15.00
2017,06,17,11,10,15.00
2017,06,17,11,11,15.00
2017,06,17,11,12,15.00
2017,06,17,11,13,15.00
2017,06,17,11,14,15.00
2017,06,17,11,15,15.00
2017,06,17,11,16,15.00
2017,06,17,11,17,15.00
2017,06,17,11,18,15.00
2017,06,17,11,19,14.90
2017,06,17,11,20,15.00
2017,06,17,11,21,15.00
2017,06,17,11,22,15.00
2017,06,17,11,23,15.00
2017,06,17,11,24,15.00
2017,06,17,11,25,15.00
2017,06,17,11,26,15.00
2017,06,17,11,27,15.00
2017,06,17,11,28,15.00
2017,06,17,11,29,15.00
2017,06,17,11,30,14.90
2017,06,17,11,31,14.80
2017,06,17,11,32,14.70
2017,06,17,11,33,14.70
2017,06,17,11,34,14.70
2017,06,17,11,35,14.70
2017,06,17,11,36,14.80
2017,06,17,11,37,14.80
2017,06,17,11,38,14.90
2017,06,17,11,39,14.90
2017,06,17,11,40,14.90
2017,06,17,11,41,15.00
2017,06,17,11,42,15.00
2017,06,17,11,43,15.00
2017,06,17,11,44,15.00
2017,06,17,11,45,15.00
2017,06,17,11,46,15.00
2017,06,17,11,47,15.00
2017,06,17,11,48,15.00
2017,06,17,11,49,15.00
2017,06,17,11,50,15.00
2017,06,17,11,51,15.00
2017,06,17,11,52,15.00
2017,06,17,11,53,15.00
2017,06,17,11,54,15.00
2017,06,17,11,55,15.00
2017,06,17,11,56,15.00
2017,06,17,11,57,15.00
2017,06,17,11,58,15.00
2017,06,17,11,59,15.10
2017,06,17,12,00,15.20
2017,06,17,12,01,15.30
2017,06,17,12,02,15.40
2017,06,17,12,03,15.40
2017,06,17,12,04,15.40
2017,06,17,12,05,15.40
2017,06,17,12,06,15.50
2017,06,17,12,07,15.50
2017,06,17,12,08,15.60
2017,06,17,12,09,15.70
2017,06,17,12,10,15.70
2017,06,17,12,11,15.80
2017,06,17,12,12,15.80
2017,06,17,12,13,15.80
2017,06,17,12,14,15.80
2017,06,17,12,15,15.80
2017,06,17,12,16,15.80
2017,06,17,12,17,15.70
2017,06,17,12,18,15.70
2017,06,17,12,19,15.70
2017,06,17,12,20,15.60
2017,06,17,12,21,15.50
2017,06,17,12,22,15.50
2017,06,17,12,23,15.40
2017,06,17,12,24,15.40
2017,06,17,12,25,15.40
2017,06,17,12,26,15.50
2017,06,17,12,27,15.50
2017,06,17,12,28,15.50
2017,06,17,12,29,15.60
2017,06,17,12,30,15.70
2017,06,17,12,31,15.80
2017,06,17,12,32,15.80
2017,06,17,12,33,15.80
2017,06,17,12,34,15.80
2017,06,17,12,35,15.80
2017,06,17,12,36,15.80
2017,06,17,12,37,15.70
2017,06,17,12,38,15.70
2017,06,17,12,39,15.80
2017,06,17,12,40,15.80
2017,06,17,12,41,15.80
2017,06,17,12,42,15.80
2017,06,17,12,43,15.70
2017,06,17,12,44,15.60
2017,06,17,12,45,15.50
2017,06,17,12,46,15.50
2017,06,17,12,47,15.40
2017,06,17,12,48,15.40
2017,06,17,12,49,15.40
2017,06,17,12,50,15.30
2017,06,17,12,51,15.30
2017,06,17,12,52,15.30
2017,06,17,12,53,15.40
2017,06,17,12,54,15.40
2017,06,17,12,55,15.40
2017,06,17,12,56,15.40
2017,06,17,12,57,15.50
2017,06,17,12,58,15.50
2017,06,17,12,59,15.50
2017,06,17,13,00,15.50
2017,06,17,13,01,15.50
2017,06,17,13,02,15.40
2017,06,17,13,03,15.50
2017,06,17,13,04,15.50
2017,06,17,13,05,15.50
2017,06,17,13,06,15.50
2017,06,17,13,07,15.60
2017,06,17,13,08,15.60
2017,06,17,13,09,15.50
2017,06,17,13,10,15.50
2017,06,17,13,11,15.50
2017,06,17,13,12,15.50
2017,06,17,13,13,15.40
2017,06,17,13,14,15.40
2017,06,17,13,15,15.50
2017,06,17,13,16,15.50
2017,06,17,13,17,15.60
2017,06,17,13,18,15.70
2017,06,17,13,19,15.70
2017,06,17,13,20,15.80
2017,06,17,13,21,15.80
2017,06,17,13,22,15.70
2017,06,17,13,23,15.70
2017,06,17,13,24,15.80
2017,06,17,13,25,15.80
2017,06,17,13,26,15.90
2017,06,17,13,27,16.00
2017,06,17,13,28,16.00
2017,06,17,13,29,16.00
2017,06,17,13,30,16.00
2017,06,17,13,31,15.90
2017,06,17,13,32,15.90
2017,06,17,13,33,15.90
2017,06,17,13,34,15.90
2017,06,17,13,35,16.00
2017,06,17,13,36,16.10
2017,06,17,13,37,16.10
2017,06,17,13,38,16.10
2017,06,17,13,39,16.10
2017,06,17,13,40,16.10
2017,06,17,13,41,16.00
2017,06,17,13,42,16.00
2017,06,17,13,43,15.90
2017,06,17,13,44,15.90
2017,06,17,13,45,15.90
2017,06,17,13,46,15.90
2017,06,17,13,47,15.90
2017,06,17,13,48,15.80
2017,06,17,13,49,15.80
2017,06,17,13,50,15.80
2017,06,17,13,51,15.80
2017,06,17,13,52,15.80
2017,06,17,13,53,15.90
2017,06,17,13,54,15.90
2017,06,17,13,55,15.90
2017,06,17,13,56,16.00
2017,06,17,13,57,16.10
2017,06,17,13,58,16.10
2017,06,17,13,59,16.10
2017,06,17,14,00,16.10
2017,06,17,14,01,16.20
2017,06,17,14,02,16.20
2017,06,17,14,03,16.20
2017,06,17,14,04,16.20
2017,06,17,14,05,16.20
2017,06,17,14,06,16.10
2017,06,17,14,07,16.10
2017,06,17,14,08,16.20
2017,06,17,14,09,16.20
2017,06,17,14,10,16.20
2017,06,17,14,11,16.30
2017,06,17,14,12,16.30
2017,06,17,14,13,16.20
2017,06,17,14,14,16.20
2017,06,17,14,15,16.20
2017,06,17,14,16,16.20
2017,06,17,14,17,16.20
2017,06,17,14,18,16.20
2017,06,17,14,19,16.30
2017,06,17,14,20,16.40
2017,06,17,14,21,16.40
2017,06,17,14,22,16.40
2017,06,17,14,23,16.40
2017,06,17,14,24,16.40
2017,06,17,14,25,16.40
2017,06,17,14,26,16.40
2017,06,17,14,27,16.40
2017,06,17,14,28,16.40
2017,06,17,14,29,16.40
2017,06,17,14,30,16.40
2017,06,17,14,31,16.40
2017,06,17,14,32,16.40
2017,06,17,14,33,16.30
2017,06,17,14,34,16.20
2017,06,17,14,35,16.20
2017,06,17,14,36,16.20
2017,06,17,14,37,16.20
2017,06,17,14,38,16.20
2017,06,17,14,39,16.20
2017,06,17,14,40,16.20
2017,06,17,14,41,16.20
2017,06,17,14,42,16.10
2017,06,17,14,43,16.10
2017,06,17,14,44,16.00
2017,06,17,14,45,15.90
2017,06,17,14,46,15.90
2017,06,17,14,47,15.90
2017,06,17,14,48,15.80
2017,06,17,14,49,15.90
2017,06,17,14,50,15.90
2017,06,17,14,51,16.00
2017,06,17,14,52,16.00
2017,06,17,14,53,16.00
2017,06,17,14,54,15.90
2017,06,17,14,55,15.90
2017,06,17,14,56,15.90
2017,06,17,14,57,15.80
2017,06,17,14,58,15.80
2017,06,17,14,59,15.80
2017,06,17,15,00,15.80
2017,06,17,15,01,15.90
2017,06,17,15,02,15.90
2017,06,17,15,03,15.90
2017,06,17,15,04,15.90
2017,06,17,15,05,15.90
2017,06,17,15,06,15.90
2017,06,17,15,07,15.90
2017,06,17,15,08,15.80
2017,06,17,15,09,15.80
2017,06,17,15,10,15.80
2017,06,17,15,11,15.70
2017,06,17,15,12,15.70
2017,06,17,15,13,15.70
2017,06,17,15,14,15.70
2017,06,17,15,15,15.70
2017,06,17,15,16,15.80
2017,06,17,15,17,15.80
2017,06,17,15,18,15.80
2017,06,17,15,19,15.80
2017,06,17,15,20,15.70
2017,06,17,15,21,15.70
2017,06,17,15,22,15.70
2017,06,17,15,23,15.70
2017,06,17,15,24,15.70
2017,06,17,15,25,15.80
2017,06,17,15,26,15.80
2017,06,17,15,27,15.80
2017,06,17,15,28,15.80
2017,06,17,15,29,15.80
2017,06,17,15,30,15.80
2017,06,17,15,31,15.80
2017,06,17,15,32,15.90
2017,06,17,15,33,15.90
2017,06,17,15,34,15.90
2017,06,17,15,35,16.00
2017,06,17,15,36,16.00
2017,06,17,15,37,16.00
2017,06,17,15,38,15.90
2017,06,17,15,39,15.90
2017,06,17,15,40,15.90
2017,06,17,15,41,15.90
2017,06,17,15,42,15.90
2017,06,17,15,43,15.90
2017,06,17,15,44,15.90
2017,06,17,15,45,15.90
2017,06,17,15,46,16.00
2017,06,17,15,47,15.90
2017,06,17,15,48,15.90
2017,06,17,15,49,15.90
2017,06,17,15,50,15.90
2017,06,17,15,51,15.80
2017,06,17,15,52,15.80
2017,06,17,15,53,15.90
2017,06,17,15,54,15.90
2017,06,17,15,55,15.90
2017,06,17,15,56,15.90
2017,06,17,15,57,15.80
2017,06,17,15,58,15.80
2017,06,17,15,59,15.80
2017,06,17,16,00,15.80
2017,06,17,16,01,15.80
2017,06,17,16,02,15.90
2017,06,17,16,03,15.90
2017,06,17,16,04,15.90
2017,06,17,16,05,15.90
2017,06,17,16,06,15.90
2017,06,17,16,07,15.90
2017,06,17,16,08,15.90
2017,06,17,16,09,15.90
2017,06,17,16,10,15.90
2017,06,17,16,11,15.90
2017,06,17,16,12,15.90
2017,06,17,16,13,15.90
2017,06,17,16,14,15.90
2017,06,17,16,15,15.80
2017,06,17,16,16,15.90
2017,06,17,16,17,15.80
2017,06,17,16,18,15.80
2017,06,17,16,19,15.80
2017,06,17,16,20,15.80
2017,06,17,16,21,15.70
2017,06,17,16,22,15.70
2017,06,17,16,23,15.70
2017,06,17,16,24,15.70
2017,06,17,16,25,15.70
2017,06,17,16,26,15.70
2017,06,17,16,27,15.80
2017,06,17,16,28,15.80
2017,06,17,16,29,15.80
2017,06,17,16,30,15.80
2017,06,17,16,31,15.80
2017,06,17,16,32,15.80
2017,06,17,16,33,15.70
2017,06,17,16,34,15.70
2017,06,17,16,35,15.60
2017,06,17,16,36,15.60
2017,06,17,16,37,15.50
2017,06,17,16,38,15.50
2017,06,17,16,39,15.40
2017,06,17,16,40,15.40
2017,06,17,16,41,15.40
2017,06,17,16,42,15.40
2017,06,17,16,43,15.40
2017,06,17,16,44,15.40
2017,06,17,16,45,15.40
2017,06,17,16,46,15.50
2017,06,17,16,47,15.50
2017,06,17,16,48,15.40
2017,06,17,16,49,15.40
2017,06,17,16,50,15.40
2017,06,17,16,51,15.40
2017,06,17,16,52,15.50
2017,06,17,16,53,15.50
2017,06,17,16,54,15.50
2017,06,17,16,55,15.50
2017,06,17,16,56,15.50
2017,06,17,16,57,15.50
2017,06,17,16,58,15.60
2017,06,17,16,59,15.60
2017,06,17,17,00,15.60
2017,06,17,17,01,15.60
2017,06,17,17,02,15.60
2017,06,17,17,03,15.60
2017,06,17,17,04,15.60
2017,06,17,17,05,15.60
2017,06,17,17,06,15.60
2017,06,17,17,07,15.60
2017,06,17,17,08,15.60
2017,06,17,17,09,15.60
2017,06,17,17,10,15.60
2017,06,17,17,11,15.60
2017,06,17,17,12,15.60
2017,06,17,17,13,15.60
2017,06,17,17,14,15.60
2017,06,17,17,15,15.60
2017,06,17,17,16,15.60
2017,06,17,17,17,15.60
2017,06,17,17,18,15.60
2017,06,17,17,19,15.60